Year,Month,Day,Hour,Minute,Value (Times are PST for temperature in C)
2010,05,04,00,00,5.90
2010,05,04,00,01,5.90
2010,05,04,00,02,5.90
2010,05,04,00,03,5.90
2010,05,04,00,04,6.00
2010,05,04,00,05,6.00
2010,05,04,00,06,6.00
2010,05,04,00,07,6.00
2010,05,04,00,08,6.00
2010,05,04,00,09,6.00
2010,05,04,00,10,6.00
2010,05,04,00,11,6.00
2010,05,04,00,12,6.00
2010,05,04,00,13,6.00
2010,05,04,00,14,6.00
2010,05,04,00,15,6.00
2010,05,04,00,16,6.00
2010,05,04,00,17,6.00
2010,05,04,00,18,6.00
2010,05,04,00,19,6.00
2010,05,04,00,20,5.90
2010,05,04,00,21,5.90
2010,05,04,00,22,5.90
2010,05,04,00,23,5.90
2010,05,04,00,24,5.90
2010,05,04,00,25,5.90
2010,05,04,00,26,5.90
2010,05,04,00,27,5.90
2010,05,04,00,28,5.90
2010,05,04,00,29,5.90
2010,05,04,00,30,5.90
2010,05,04,00,31,5.90
2010,05,04,00,32,6.00
2010,05,04,00,33,5.90
2010,05,04,00,34,5.90
2010,05,04,00,35,5.90
2010,05,04,00,36,5.90
2010,05,04,00,37,5.90
2010,05,04,00,38,5.90
2010,05,04,00,39,5.90
2010,05,04,00,40,5.90
2010,05,04,00,41,5.90
2010,05,04,00,42,5.90
2010,05,04,00,43,5.90
2010,05,04,00,44,5.90
2010,05,04,00,45,5.90
2010,05,04,00,46,5.90
2010,05,04,00,47,5.90
2010,05,04,00,48,5.90
2010,05,04,00,49,5.90
2010,05,04,00,50,5.90
2010,05,04,00,51,5.90
2010,05,04,00,52,5.90
2010,05,04,00,53,5.90
2010,05,04,00,54,5.90
2010,05,04,00,55,5.90
2010,05,04,00,56,5.90
2010,05,04,00,57,5.90
2010,05,04,00,58,5.90
2010,05,04,00,59,5.80
2010,05,04,01,00,5.80
2010,05,04,01,01,5.80
2010,05,04,01,02,5.80
2010,05,04,01,03,5.80
2010,05,04,01,04,5.80
2010,05,04,01,05,5.80
2010,05,04,01,06,5.90
2010,05,04,01,07,5.90
2010,05,04,01,08,5.90
2010,05,04,01,09,5.90
2010,05,04,01,10,5.90
2010,05,04,01,11,5.90
2010,05,04,01,12,5.90
2010,05,04,01,13,5.90
2010,05,04,01,14,5.90
2010,05,04,01,15,5.90
2010,05,04,01,16,5.80
2010,05,04,01,17,5.80
2010,05,04,01,18,5.80
2010,05,04,01,19,5.80
2010,05,04,01,20,5.80
2010,05,04,01,21,5.80
2010,05,04,01,22,5.80
2010,05,04,01,23,5.70
2010,05,04,01,24,5.70
2010,05,04,01,25,5.70
2010,05,04,01,26,5.70
2010,05,04,01,27,5.70
2010,05,04,01,28,5.70
2010,05,04,01,29,5.70
2010,05,04,01,30,5.70
2010,05,04,01,31,5.70
2010,05,04,01,32,5.70
2010,05,04,01,33,5.70
2010,05,04,01,34,5.70
2010,05,04,01,35,5.70
2010,05,04,01,36,5.60
2010,05,04,01,37,5.60
2010,05,04,01,38,5.60
2010,05,04,01,39,5.60
2010,05,04,01,40,5.60
2010,05,04,01,41,5.60
2010,05,04,01,42,5.60
2010,05,04,01,43,5.60
2010,05,04,01,44,5.60
2010,05,04,01,45,5.60
2010,05,04,01,46,5.60
2010,05,04,01,47,5.60
2010,05,04,01,48,5.60
2010,05,04,01,49,5.60
2010,05,04,01,50,5.60
2010,05,04,01,51,5.60
2010,05,04,01,52,5.60
2010,05,04,01,53,5.70
2010,05,04,01,54,5.70
2010,05,04,01,55,5.70
2010,05,04,01,56,5.70
2010,05,04,01,57,5.70
2010,05,04,01,58,5.70
2010,05,04,01,59,5.70
2010,05,04,02,00,5.70
2010,05,04,02,01,5.70
2010,05,04,02,02,5.70
2010,05,04,02,03,5.70
2010,05,04,02,04,5.70
2010,05,04,02,05,5.70
2010,05,04,02,06,5.70
2010,05,04,02,07,5.70
2010,05,04,02,08,5.70
2010,05,04,02,09,5.70
2010,05,04,02,10,5.70
2010,05,04,02,11,5.70
2010,05,04,02,12,5.70
2010,05,04,02,13,5.70
2010,05,04,02,14,5.70
2010,05,04,02,15,5.70
2010,05,04,02,16,5.70
2010,05,04,02,17,5.70
2010,05,04,02,18,5.80
2010,05,04,02,19,5.80
2010,05,04,02,20,5.80
2010,05,04,02,21,5.80
2010,05,04,02,22,5.80
2010,05,04,02,23,5.80
2010,05,04,02,24,5.80
2010,05,04,02,25,5.80
2010,05,04,02,26,5.80
2010,05,04,02,27,5.90
2010,05,04,02,28,5.90
2010,05,04,02,29,5.90
2010,05,04,02,30,5.90
2010,05,04,02,31,5.90
2010,05,04,02,32,5.90
2010,05,04,02,33,5.90
2010,05,04,02,34,5.90
2010,05,04,02,35,5.90
2010,05,04,02,36,5.90
2010,05,04,02,37,5.80
2010,05,04,02,38,5.80
2010,05,04,02,39,5.80
2010,05,04,02,40,5.80
2010,05,04,02,41,5.80
2010,05,04,02,42,5.80
2010,05,04,02,43,5.80
2010,05,04,02,44,5.80
2010,05,04,02,45,5.80
2010,05,04,02,46,5.80
2010,05,04,02,47,5.90
2010,05,04,02,48,5.90
2010,05,04,02,49,5.90
2010,05,04,02,50,5.90
2010,05,04,02,51,5.80
2010,05,04,02,52,5.80
2010,05,04,02,53,5.80
2010,05,04,02,54,5.80
2010,05,04,02,55,5.90
2010,05,04,02,56,5.90
2010,05,04,02,57,5.90
2010,05,04,02,58,5.90
2010,05,04,02,59,5.90
2010,05,04,03,00,5.90
2010,05,04,03,01,5.90
2010,05,04,03,02,5.90
2010,05,04,03,03,5.90
2010,05,04,03,04,5.90
2010,05,04,03,05,5.90
2010,05,04,03,06,5.90
2010,05,04,03,07,5.90
2010,05,04,03,08,5.90
2010,05,04,03,09,5.90
2010,05,04,03,10,5.90
2010,05,04,03,11,5.90
2010,05,04,03,12,5.90
2010,05,04,03,13,5.90
2010,05,04,03,14,5.90
2010,05,04,03,15,5.80
2010,05,04,03,16,5.80
2010,05,04,03,17,5.80
2010,05,04,03,18,5.80
2010,05,04,03,19,5.80
2010,05,04,03,20,5.80
2010,05,04,03,21,5.80
2010,05,04,03,22,5.90
2010,05,04,03,23,5.90
2010,05,04,03,24,5.90
2010,05,04,03,25,5.90
2010,05,04,03,26,5.90
2010,05,04,03,27,5.90
2010,05,04,03,28,5.90
2010,05,04,03,29,5.90
2010,05,04,03,30,5.90
2010,05,04,03,31,5.90
2010,05,04,03,32,6.00
2010,05,04,03,33,6.00
2010,05,04,03,34,6.00
2010,05,04,03,35,6.00
2010,05,04,03,36,6.00
2010,05,04,03,37,6.00
2010,05,04,03,38,6.00
2010,05,04,03,39,6.00
2010,05,04,03,40,6.00
2010,05,04,03,41,6.00
2010,05,04,03,42,6.00
2010,05,04,03,43,5.90
2010,05,04,03,44,5.90
2010,05,04,03,45,5.90
2010,05,04,03,46,5.90
2010,05,04,03,47,5.80
2010,05,04,03,48,5.80
2010,05,04,03,49,5.80
2010,05,04,03,50,5.70
2010,05,04,03,51,5.70
2010,05,04,03,52,5.70
2010,05,04,03,53,5.70
2010,05,04,03,54,5.70
2010,05,04,03,55,5.70
2010,05,04,03,56,5.60
2010,05,04,03,57,5.60
2010,05,04,03,58,5.60
2010,05,04,03,59,5.50
2010,05,04,04,00,5.50
2010,05,04,04,01,5.50
2010,05,04,04,02,5.40
2010,05,04,04,03,5.40
2010,05,04,04,04,5.30
2010,05,04,04,05,5.30
2010,05,04,04,06,5.30
2010,05,04,04,07,5.30
2010,05,04,04,08,5.30
2010,05,04,04,09,5.30
2010,05,04,04,10,5.30
2010,05,04,04,11,5.30
2010,05,04,04,12,5.30
2010,05,04,04,13,5.30
2010,05,04,04,14,5.30
2010,05,04,04,15,5.30
2010,05,04,04,16,5.30
2010,05,04,04,17,5.30
2010,05,04,04,18,5.30
2010,05,04,04,19,5.30
2010,05,04,04,20,5.30
2010,05,04,04,21,5.30
2010,05,04,04,22,5.30
2010,05,04,04,23,5.30
2010,05,04,04,24,5.30
2010,05,04,04,25,5.30
2010,05,04,04,26,5.30
2010,05,04,04,27,5.30
2010,05,04,04,28,5.30
2010,05,04,04,29,5.40
2010,05,04,04,30,5.40
2010,05,04,04,31,5.40
2010,05,04,04,32,5.40
2010,05,04,04,33,5.40
2010,05,04,04,34,5.40
2010,05,04,04,35,5.40
2010,05,04,04,36,5.50
2010,05,04,04,37,5.50
2010,05,04,04,38,5.50
2010,05,04,04,39,5.50
2010,05,04,04,40,5.50
2010,05,04,04,41,5.50
2010,05,04,04,42,5.50
2010,05,04,04,43,5.50
2010,05,04,04,44,5.50
2010,05,04,04,45,5.50
2010,05,04,04,46,5.50
2010,05,04,04,47,5.40
2010,05,04,04,48,5.40
2010,05,04,04,49,5.40
2010,05,04,04,50,5.40
2010,05,04,04,51,5.40
2010,05,04,04,52,5.40
2010,05,04,04,53,5.40
2010,05,04,04,54,5.40
2010,05,04,04,55,5.40
2010,05,04,04,56,5.40
2010,05,04,04,57,5.30
2010,05,04,04,58,5.30
2010,05,04,04,59,5.30
2010,05,04,05,00,5.30
2010,05,04,05,01,5.30
2010,05,04,05,02,5.30
2010,05,04,05,03,5.30
2010,05,04,05,04,5.30
2010,05,04,05,05,5.30
2010,05,04,05,06,5.30
2010,05,04,05,07,5.30
2010,05,04,05,08,5.30
2010,05,04,05,09,5.30
2010,05,04,05,10,5.30
2010,05,04,05,11,5.30
2010,05,04,05,12,5.30
2010,05,04,05,13,5.30
2010,05,04,05,14,5.30
2010,05,04,05,15,5.30
2010,05,04,05,16,5.30
2010,05,04,05,17,5.30
2010,05,04,05,18,5.30
2010,05,04,05,19,5.30
2010,05,04,05,20,5.30
2010,05,04,05,21,5.30
2010,05,04,05,22,5.30
2010,05,04,05,23,5.30
2010,05,04,05,24,5.30
2010,05,04,05,25,5.30
2010,05,04,05,26,5.30
2010,05,04,05,27,5.30
2010,05,04,05,28,5.30
2010,05,04,05,29,5.30
2010,05,04,05,30,5.30
2010,05,04,05,31,5.30
2010,05,04,05,32,5.30
2010,05,04,05,33,5.30
2010,05,04,05,34,5.30
2010,05,04,05,35,5.30
2010,05,04,05,36,5.30
2010,05,04,05,37,5.30
2010,05,04,05,38,5.30
2010,05,04,05,39,5.30
2010,05,04,05,40,5.30
2010,05,04,05,41,5.30
2010,05,04,05,42,5.30
2010,05,04,05,43,5.30
2010,05,04,05,44,5.30
2010,05,04,05,45,5.30
2010,05,04,05,46,5.30
2010,05,04,05,47,5.40
2010,05,04,05,48,5.40
2010,05,04,05,49,5.40
2010,05,04,05,50,5.40
2010,05,04,05,51,5.40
2010,05,04,05,52,5.40
2010,05,04,05,53,5.40
2010,05,04,05,54,5.40
2010,05,04,05,55,5.40
2010,05,04,05,56,5.30
2010,05,04,05,57,5.30
2010,05,04,05,58,5.30
2010,05,04,05,59,5.30
2010,05,04,06,00,5.30
2010,05,04,06,01,5.30
2010,05,04,06,02,5.30
2010,05,04,06,03,5.30
2010,05,04,06,04,5.30
2010,05,04,06,05,5.30
2010,05,04,06,06,5.30
2010,05,04,06,07,5.30
2010,05,04,06,08,5.30
2010,05,04,06,09,5.30
2010,05,04,06,10,5.30
2010,05,04,06,11,5.20
2010,05,04,06,12,5.20
2010,05,04,06,13,5.20
2010,05,04,06,14,5.20
2010,05,04,06,15,5.20
2010,05,04,06,16,5.20
2010,05,04,06,17,5.20
2010,05,04,06,18,5.20
2010,05,04,06,19,5.20
2010,05,04,06,20,5.20
2010,05,04,06,21,5.10
2010,05,04,06,22,5.10
2010,05,04,06,23,5.10
2010,05,04,06,24,5.10
2010,05,04,06,25,5.10
2010,05,04,06,26,5.10
2010,05,04,06,27,5.10
2010,05,04,06,28,5.10
2010,05,04,06,29,5.10
2010,05,04,06,30,5.10
2010,05,04,06,31,5.10
2010,05,04,06,32,5.10
2010,05,04,06,33,5.10
2010,05,04,06,34,5.10
2010,05,04,06,35,5.10
2010,05,04,06,36,5.10
2010,05,04,06,37,5.10
2010,05,04,06,38,5.10
2010,05,04,06,39,5.10
2010,05,04,06,40,5.20
2010,05,04,06,41,5.20
2010,05,04,06,42,5.20
2010,05,04,06,43,5.20
2010,05,04,06,44,5.30
2010,05,04,06,45,5.30
2010,05,04,06,46,5.30
2010,05,04,06,47,5.30
2010,05,04,06,48,5.30
2010,05,04,06,49,5.30
2010,05,04,06,50,5.30
2010,05,04,06,51,5.30
2010,05,04,06,52,5.30
2010,05,04,06,53,5.30
2010,05,04,06,54,5.40
2010,05,04,06,55,5.40
2010,05,04,06,56,5.40
2010,05,04,06,57,5.40
2010,05,04,06,58,5.40
2010,05,04,06,59,5.40
2010,05,04,07,00,5.50
2010,05,04,07,01,5.50
2010,05,04,07,02,5.50
2010,05,04,07,03,5.50
2010,05,04,07,04,5.50
2010,05,04,07,05,5.50
2010,05,04,07,06,5.50
2010,05,04,07,07,5.50
2010,05,04,07,08,5.60
2010,05,04,07,09,5.60
2010,05,04,07,10,5.60
2010,05,04,07,11,5.60
2010,05,04,07,12,5.60
2010,05,04,07,13,5.60
2010,05,04,07,14,5.60
2010,05,04,07,15,5.60
2010,05,04,07,16,5.60
2010,05,04,07,17,5.60
2010,05,04,07,18,5.70
2010,05,04,07,19,5.70
2010,05,04,07,20,5.70
2010,05,04,07,21,5.70
2010,05,04,07,22,5.60
2010,05,04,07,23,5.70
2010,05,04,07,24,5.70
2010,05,04,07,25,5.70
2010,05,04,07,26,5.70
2010,05,04,07,27,5.60
2010,05,04,07,28,5.60
2010,05,04,07,29,5.70
2010,05,04,07,30,5.70
2010,05,04,07,31,5.70
2010,05,04,07,32,5.70
2010,05,04,07,33,5.70
2010,05,04,07,34,5.70
2010,05,04,07,35,5.70
2010,05,04,07,36,5.70
2010,05,04,07,37,5.70
2010,05,04,07,38,5.70
2010,05,04,07,39,5.70
2010,05,04,07,40,5.70
2010,05,04,07,41,5.70
2010,05,04,07,42,5.70
2010,05,04,07,43,5.70
2010,05,04,07,44,5.80
2010,05,04,07,45,5.80
2010,05,04,07,46,5.80
2010,05,04,07,47,5.90
2010,05,04,07,48,5.90
2010,05,04,07,49,5.90
2010,05,04,07,50,5.90
2010,05,04,07,51,5.90
2010,05,04,07,52,5.90
2010,05,04,07,53,6.00
2010,05,04,07,54,6.00
2010,05,04,07,55,6.10
2010,05,04,07,56,6.10
2010,05,04,07,57,6.20
2010,05,04,07,58,6.20
2010,05,04,07,59,6.20
2010,05,04,08,00,6.20
2010,05,04,08,01,6.20
2010,05,04,08,02,6.20
2010,05,04,08,03,6.20
2010,05,04,08,04,6.20
2010,05,04,08,05,6.30
2010,05,04,08,06,6.30
2010,05,04,08,07,6.30
2010,05,04,08,08,6.30
2010,05,04,08,09,6.30
2010,05,04,08,10,6.30
2010,05,04,08,11,6.40
2010,05,04,08,12,6.40
2010,05,04,08,13,6.40
2010,05,04,08,14,6.30
2010,05,04,08,15,6.30
2010,05,04,08,16,6.30
2010,05,04,08,17,6.30
2010,05,04,08,18,6.30
2010,05,04,08,19,6.30
2010,05,04,08,20,6.30
2010,05,04,08,21,6.20
2010,05,04,08,22,6.20
2010,05,04,08,23,6.20
2010,05,04,08,24,6.20
2010,05,04,08,25,6.20
2010,05,04,08,26,6.20
2010,05,04,08,27,6.20
2010,05,04,08,28,6.20
2010,05,04,08,29,6.20
2010,05,04,08,30,6.20
2010,05,04,08,31,6.20
2010,05,04,08,32,6.20
2010,05,04,08,33,6.20
2010,05,04,08,34,6.20
2010,05,04,08,35,6.20
2010,05,04,08,36,6.30
2010,05,04,08,37,6.30
2010,05,04,08,38,6.40
2010,05,04,08,39,6.40
2010,05,04,08,40,6.40
2010,05,04,08,41,6.40
2010,05,04,08,42,6.40
2010,05,04,08,43,6.40
2010,05,04,08,44,6.40
2010,05,04,08,45,6.40
2010,05,04,08,46,6.40
2010,05,04,08,47,6.40
2010,05,04,08,48,6.40
2010,05,04,08,49,6.40
2010,05,04,08,50,6.30
2010,05,04,08,51,6.30
2010,05,04,08,52,6.30
2010,05,04,08,53,6.20
2010,05,04,08,54,6.20
2010,05,04,08,55,6.20
2010,05,04,08,56,6.20
2010,05,04,08,57,6.20
2010,05,04,08,58,6.20
2010,05,04,08,59,6.20
2010,05,04,09,00,6.20
2010,05,04,09,01,6.20
2010,05,04,09,02,6.30
2010,05,04,09,03,6.30
2010,05,04,09,04,6.20
2010,05,04,09,05,6.20
2010,05,04,09,06,6.30
2010,05,04,09,07,6.30
2010,05,04,09,08,6.40
2010,05,04,09,09,6.40
2010,05,04,09,10,6.40
2010,05,04,09,11,6.50
2010,05,04,09,12,6.60
2010,05,04,09,13,6.60
2010,05,04,09,14,6.70
2010,05,04,09,15,6.80
2010,05,04,09,16,6.80
2010,05,04,09,17,6.80
2010,05,04,09,18,6.80
2010,05,04,09,19,6.70
2010,05,04,09,20,6.70
2010,05,04,09,21,6.70
2010,05,04,09,22,6.70
2010,05,04,09,23,6.70
2010,05,04,09,24,6.70
2010,05,04,09,25,6.80
2010,05,04,09,26,6.80
2010,05,04,09,27,6.80
2010,05,04,09,28,6.90
2010,05,04,09,29,6.90
2010,05,04,09,30,6.90
2010,05,04,09,31,6.90
2010,05,04,09,32,6.90
2010,05,04,09,33,7.00
2010,05,04,09,34,7.00
2010,05,04,09,35,7.10
2010,05,04,09,36,7.20
2010,05,04,09,37,7.20
2010,05,04,09,38,7.30
2010,05,04,09,39,7.30
2010,05,04,09,40,7.30
2010,05,04,09,41,7.30
2010,05,04,09,42,7.20
2010,05,04,09,43,7.20
2010,05,04,09,44,7.20
2010,05,04,09,45,7.20
2010,05,04,09,46,7.20
2010,05,04,09,47,7.30
2010,05,04,09,48,7.30
2010,05,04,09,49,7.30
2010,05,04,09,50,7.30
2010,05,04,09,51,7.20
2010,05,04,09,52,7.20
2010,05,04,09,53,7.30
2010,05,04,09,54,7.30
2010,05,04,09,55,7.30
2010,05,04,09,56,7.20
2010,05,04,09,57,7.10
2010,05,04,09,58,7.00
2010,05,04,09,59,7.00
2010,05,04,10,00,7.00
2010,05,04,10,01,6.90
2010,05,04,10,02,7.00
2010,05,04,10,03,7.00
2010,05,04,10,04,7.10
2010,05,04,10,05,7.10
2010,05,04,10,06,7.10
2010,05,04,10,07,7.20
2010,05,04,10,08,7.20
2010,05,04,10,09,7.20
2010,05,04,10,10,7.20
2010,05,04,10,11,7.30
2010,05,04,10,12,7.30
2010,05,04,10,13,7.30
2010,05,04,10,14,7.40
2010,05,04,10,15,7.30
2010,05,04,10,16,7.30
2010,05,04,10,17,7.30
2010,05,04,10,18,7.30
2010,05,04,10,19,7.20
2010,05,04,10,20,7.30
2010,05,04,10,21,7.30
2010,05,04,10,22,7.30
2010,05,04,10,23,7.30
2010,05,04,10,24,7.20
2010,05,04,10,25,7.20
2010,05,04,10,26,7.20
2010,05,04,10,27,7.30
2010,05,04,10,28,7.30
2010,05,04,10,29,7.30
2010,05,04,10,30,7.30
2010,05,04,10,31,7.30
2010,05,04,10,32,7.30
2010,05,04,10,33,7.30
2010,05,04,10,34,7.30
2010,05,04,10,35,7.20
2010,05,04,10,36,7.20
2010,05,04,10,37,7.20
2010,05,04,10,38,7.20
2010,05,04,10,39,7.20
2010,05,04,10,40,7.30
2010,05,04,10,41,7.30
2010,05,04,10,42,7.30
2010,05,04,10,43,7.40
2010,05,04,10,44,7.50
2010,05,04,10,45,7.60
2010,05,04,10,46,7.60
2010,05,04,10,47,7.50
2010,05,04,10,48,7.30
2010,05,04,10,49,7.30
2010,05,04,10,50,7.20
2010,05,04,10,51,7.20
2010,05,04,10,52,7.20
2010,05,04,10,53,7.30
2010,05,04,10,54,7.30
2010,05,04,10,55,7.30
2010,05,04,10,56,7.40
2010,05,04,10,57,7.50
2010,05,04,10,58,7.60
2010,05,04,10,59,7.60
2010,05,04,11,00,7.70
2010,05,04,11,01,7.80
2010,05,04,11,02,7.90
2010,05,04,11,03,7.90
2010,05,04,11,04,7.80
2010,05,04,11,05,7.80
2010,05,04,11,06,7.80
2010,05,04,11,07,7.90
2010,05,04,11,08,7.80
2010,05,04,11,09,7.90
2010,05,04,11,10,7.90
2010,05,04,11,11,7.90
2010,05,04,11,12,8.00
2010,05,04,11,13,8.10
2010,05,04,11,14,8.30
2010,05,04,11,15,8.20
2010,05,04,11,16,8.00
2010,05,04,11,17,8.00
2010,05,04,11,18,7.90
2010,05,04,11,19,7.90
2010,05,04,11,20,7.90
2010,05,04,11,21,7.90
2010,05,04,11,22,7.90
2010,05,04,11,23,8.10
2010,05,04,11,24,8.00
2010,05,04,11,25,8.00
2010,05,04,11,26,8.10
2010,05,04,11,27,8.00
2010,05,04,11,28,7.90
2010,05,04,11,29,7.80
2010,05,04,11,30,7.80
2010,05,04,11,31,7.70
2010,05,04,11,32,7.70
2010,05,04,11,33,7.80
2010,05,04,11,34,7.80
2010,05,04,11,35,7.80
2010,05,04,11,36,7.80
2010,05,04,11,37,7.80
2010,05,04,11,38,7.80
2010,05,04,11,39,7.80
2010,05,04,11,40,7.70
2010,05,04,11,41,7.70
2010,05,04,11,42,7.80
2010,05,04,11,43,7.80
2010,05,04,11,44,7.80
2010,05,04,11,45,7.90
2010,05,04,11,46,7.90
2010,05,04,11,47,8.00
2010,05,04,11,48,8.00
2010,05,04,11,49,8.00
2010,05,04,11,50,8.10
2010,05,04,11,51,8.10
2010,05,04,11,52,8.20
2010,05,04,11,53,8.20
2010,05,04,11,54,8.30
2010,05,04,11,55,8.40
2010,05,04,11,56,8.40
2010,05,04,11,57,8.30
2010,05,04,11,58,8.10
2010,05,04,11,59,8.10
2010,05,04,12,00,8.10
2010,05,04,12,01,8.20
2010,05,04,12,02,8.20
2010,05,04,12,03,8.30
2010,05,04,12,04,8.50
2010,05,04,12,05,8.50
2010,05,04,12,06,8.60
2010,05,04,12,07,8.60
2010,05,04,12,08,8.70
2010,05,04,12,09,8.80
2010,05,04,12,10,8.90
2010,05,04,12,11,8.80
2010,05,04,12,12,8.70
2010,05,04,12,13,8.60
2010,05,04,12,14,8.60
2010,05,04,12,15,8.60
2010,05,04,12,16,8.60
2010,05,04,12,17,8.60
2010,05,04,12,18,8.70
2010,05,04,12,19,8.70
2010,05,04,12,20,8.70
2010,05,04,12,21,8.70
2010,05,04,12,22,8.70
2010,05,04,12,23,8.70
2010,05,04,12,24,8.70
2010,05,04,12,25,8.70
2010,05,04,12,26,8.70
2010,05,04,12,27,8.80
2010,05,04,12,28,8.80
2010,05,04,12,29,8.90
2010,05,04,12,30,9.00
2010,05,04,12,31,9.20
2010,05,04,12,32,9.30
2010,05,04,12,33,9.30
2010,05,04,12,34,9.20
2010,05,04,12,35,9.20
2010,05,04,12,36,9.20
2010,05,04,12,37,9.20
2010,05,04,12,38,9.20
2010,05,04,12,39,9.20
2010,05,04,12,40,9.20
2010,05,04,12,41,9.20
2010,05,04,12,42,9.30
2010,05,04,12,43,9.40
2010,05,04,12,44,9.50
2010,05,04,12,45,9.60
2010,05,04,12,46,9.60
2010,05,04,12,47,9.50
2010,05,04,12,48,9.40
2010,05,04,12,49,9.30
2010,05,04,12,50,9.20
2010,05,04,12,51,9.20
2010,05,04,12,52,9.20
2010,05,04,12,53,9.10
2010,05,04,12,54,9.20
2010,05,04,12,55,9.20
2010,05,04,12,56,9.40
2010,05,04,12,57,9.40
2010,05,04,12,58,9.40
2010,05,04,12,59,9.40
2010,05,04,13,00,9.50
2010,05,04,13,01,9.60
2010,05,04,13,02,9.70
2010,05,04,13,03,9.70
2010,05,04,13,04,9.60
2010,05,04,13,05,9.60
2010,05,04,13,06,9.70
2010,05,04,13,07,9.50
2010,05,04,13,08,9.50
2010,05,04,13,09,9.50
2010,05,04,13,10,9.60
2010,05,04,13,11,9.70
2010,05,04,13,12,9.80
2010,05,04,13,13,9.90
2010,05,04,13,14,9.90
2010,05,04,13,15,9.90
2010,05,04,13,16,9.90
2010,05,04,13,17,9.80
2010,05,04,13,18,9.70
2010,05,04,13,19,9.70
2010,05,04,13,20,9.70
2010,05,04,13,21,9.70
2010,05,04,13,22,9.70
2010,05,04,13,23,9.70
2010,05,04,13,24,9.70
2010,05,04,13,25,9.60
2010,05,04,13,26,9.60
2010,05,04,13,27,9.50
2010,05,04,13,28,9.50
2010,05,04,13,29,9.50
2010,05,04,13,30,9.50
2010,05,04,13,31,9.50
2010,05,04,13,32,9.60
2010,05,04,13,33,9.60
2010,05,04,13,34,9.50
2010,05,04,13,35,9.40
2010,05,04,13,36,9.30
2010,05,04,13,37,9.30
2010,05,04,13,38,9.30
2010,05,04,13,39,9.30
2010,05,04,13,40,9.20
2010,05,04,13,41,9.20
2010,05,04,13,42,9.20
2010,05,04,13,43,9.20
2010,05,04,13,44,9.10
2010,05,04,13,45,9.10
2010,05,04,13,46,9.10
2010,05,04,13,47,9.00
2010,05,04,13,48,9.00
2010,05,04,13,49,9.10
2010,05,04,13,50,9.00
2010,05,04,13,51,9.10
2010,05,04,13,52,9.00
2010,05,04,13,53,9.00
2010,05,04,13,54,8.90
2010,05,04,13,55,8.90
2010,05,04,13,56,9.00
2010,05,04,13,57,9.10
2010,05,04,13,58,9.20
2010,05,04,13,59,9.20
2010,05,04,14,00,9.20
2010,05,04,14,01,9.10
2010,05,04,14,02,9.00
2010,05,04,14,03,9.00
2010,05,04,14,04,9.20
2010,05,04,14,05,9.30
2010,05,04,14,06,9.40
2010,05,04,14,07,9.40
2010,05,04,14,08,9.40
2010,05,04,14,09,9.40
2010,05,04,14,10,9.40
2010,05,04,14,11,9.30
2010,05,04,14,12,9.10
2010,05,04,14,13,9.10
2010,05,04,14,14,9.10
2010,05,04,14,15,9.20
2010,05,04,14,16,9.40
2010,05,04,14,17,9.60
2010,05,04,14,18,9.70
2010,05,04,14,19,9.70
2010,05,04,14,20,9.70
2010,05,04,14,21,9.50
2010,05,04,14,22,9.50
2010,05,04,14,23,9.60
2010,05,04,14,24,9.40
2010,05,04,14,25,9.40
2010,05,04,14,26,9.20
2010,05,04,14,27,9.20
2010,05,04,14,28,9.00
2010,05,04,14,29,8.90
2010,05,04,14,30,9.00
2010,05,04,14,31,9.00
2010,05,04,14,32,9.00
2010,05,04,14,33,9.00
2010,05,04,14,34,8.80
2010,05,04,14,35,8.90
2010,05,04,14,36,8.90
2010,05,04,14,37,8.80
2010,05,04,14,38,8.60
2010,05,04,14,39,8.50
2010,05,04,14,40,8.70
2010,05,04,14,41,9.00
2010,05,04,14,42,8.80
2010,05,04,14,43,8.70
2010,05,04,14,44,8.70
2010,05,04,14,45,8.70
2010,05,04,14,46,8.70
2010,05,04,14,47,8.60
2010,05,04,14,48,8.60
2010,05,04,14,49,8.70
2010,05,04,14,50,9.00
2010,05,04,14,51,9.00
2010,05,04,14,52,9.00
2010,05,04,14,53,9.00
2010,05,04,14,54,9.10
2010,05,04,14,55,8.90
2010,05,04,14,56,8.60
2010,05,04,14,57,8.50
2010,05,04,14,58,8.50
2010,05,04,14,59,8.40
2010,05,04,15,00,8.30
2010,05,04,15,01,8.30
2010,05,04,15,02,8.20
2010,05,04,15,03,8.30
2010,05,04,15,04,8.40
2010,05,04,15,05,8.60
2010,05,04,15,06,8.60
2010,05,04,15,07,8.50
2010,05,04,15,08,8.50
2010,05,04,15,09,8.80
2010,05,04,15,10,9.00
2010,05,04,15,11,9.10
2010,05,04,15,12,9.10
2010,05,04,15,13,9.20
2010,05,04,15,14,9.20
2010,05,04,15,15,9.10
2010,05,04,15,16,9.10
2010,05,04,15,17,9.10
2010,05,04,15,18,9.10
2010,05,04,15,19,9.10
2010,05,04,15,20,9.20
2010,05,04,15,21,9.30
2010,05,04,15,22,9.30
2010,05,04,15,23,9.40
2010,05,04,15,24,9.50
2010,05,04,15,25,9.50
2010,05,04,15,26,9.60
2010,05,04,15,27,9.70
2010,05,04,15,28,9.60
2010,05,04,15,29,9.50
2010,05,04,15,30,9.40
2010,05,04,15,31,9.30
2010,05,04,15,32,9.10
2010,05,04,15,33,9.10
2010,05,04,15,34,9.20
2010,05,04,15,35,9.20
2010,05,04,15,36,9.20
2010,05,04,15,37,9.00
2010,05,04,15,38,9.00
2010,05,04,15,39,9.00
2010,05,04,15,40,9.10
2010,05,04,15,41,9.10
2010,05,04,15,42,9.10
2010,05,04,15,43,9.20
2010,05,04,15,44,9.30
2010,05,04,15,45,9.40
2010,05,04,15,46,9.40
2010,05,04,15,47,9.40
2010,05,04,15,48,9.30
2010,05,04,15,49,9.20
2010,05,04,15,50,9.30
2010,05,04,15,51,9.40
2010,05,04,15,52,9.40
2010,05,04,15,53,9.50
2010,05,04,15,54,9.50
2010,05,04,15,55,9.40
2010,05,04,15,56,9.30
2010,05,04,15,57,9.10
2010,05,04,15,58,9.10
2010,05,04,15,59,9.20
2010,05,04,16,00,9.40
2010,05,04,16,01,9.50
2010,05,04,16,02,9.70
2010,05,04,16,03,9.70
2010,05,04,16,04,9.70
2010,05,04,16,05,9.70
2010,05,04,16,06,9.70
2010,05,04,16,07,9.70
2010,05,04,16,08,9.70
2010,05,04,16,09,9.60
2010,05,04,16,10,9.60
2010,05,04,16,11,9.50
2010,05,04,16,12,9.50
2010,05,04,16,13,9.40
2010,05,04,16,14,9.40
2010,05,04,16,15,9.50
2010,05,04,16,16,9.50
2010,05,04,16,17,9.40
2010,05,04,16,18,9.20
2010,05,04,16,19,9.20
2010,05,04,16,20,9.20
2010,05,04,16,21,9.20
2010,05,04,16,22,9.20
2010,05,04,16,23,9.10
2010,05,04,16,24,9.10
2010,05,04,16,25,9.20
2010,05,04,16,26,9.30
2010,05,04,16,27,9.30
2010,05,04,16,28,9.30
2010,05,04,16,29,9.30
2010,05,04,16,30,9.40
2010,05,04,16,31,9.50
2010,05,04,16,32,9.50
2010,05,04,16,33,9.60
2010,05,04,16,34,9.50
2010,05,04,16,35,9.40
2010,05,04,16,36,9.30
2010,05,04,16,37,9.20
2010,05,04,16,38,9.20
2010,05,04,16,39,9.20
2010,05,04,16,40,9.30
2010,05,04,16,41,9.30
2010,05,04,16,42,9.30
2010,05,04,16,43,9.30
2010,05,04,16,44,9.30
2010,05,04,16,45,9.20
2010,05,04,16,46,9.20
2010,05,04,16,47,9.20
2010,05,04,16,48,9.30
2010,05,04,16,49,9.50
2010,05,04,16,50,9.50
2010,05,04,16,51,9.60
2010,05,04,16,52,9.70
2010,05,04,16,53,9.70
2010,05,04,16,54,9.70
2010,05,04,16,55,9.70
2010,05,04,16,56,9.60
2010,05,04,16,57,9.50
2010,05,04,16,58,9.50
2010,05,04,16,59,9.50
2010,05,04,17,00,9.60
2010,05,04,17,01,9.70
2010,05,04,17,02,9.70
2010,05,04,17,03,9.80
2010,05,04,17,04,9.80
2010,05,04,17,05,9.80
2010,05,04,17,06,9.70
2010,05,04,17,07,9.70
2010,05,04,17,08,9.70
2010,05,04,17,09,9.70
2010,05,04,17,10,9.70
2010,05,04,17,11,9.80
2010,05,04,17,12,9.80
2010,05,04,17,13,9.80
2010,05,04,17,14,9.80
2010,05,04,17,15,9.80
2010,05,04,17,16,9.80
2010,05,04,17,17,9.70
2010,05,04,17,18,9.70
2010,05,04,17,19,9.70
2010,05,04,17,20,9.70
2010,05,04,17,21,9.80
2010,05,04,17,22,9.90
2010,05,04,17,23,9.90
2010,05,04,17,24,9.90
2010,05,04,17,25,10.00
2010,05,04,17,26,10.10
2010,05,04,17,27,10.00
2010,05,04,17,28,9.90
2010,05,04,17,29,9.80
2010,05,04,17,30,9.80
2010,05,04,17,31,9.70
2010,05,04,17,32,9.70
2010,05,04,17,33,9.50
2010,05,04,17,34,9.30
2010,05,04,17,35,9.20
2010,05,04,17,36,9.20
2010,05,04,17,37,9.20
2010,05,04,17,38,9.30
2010,05,04,17,39,9.20
2010,05,04,17,40,9.20
2010,05,04,17,41,9.00
2010,05,04,17,42,9.00
2010,05,04,17,43,8.90
2010,05,04,17,44,8.80
2010,05,04,17,45,8.80
2010,05,04,17,46,8.90
2010,05,04,17,47,8.90
2010,05,04,17,48,8.90
2010,05,04,17,49,8.80
2010,05,04,17,50,8.80
2010,05,04,17,51,8.70
2010,05,04,17,52,8.70
2010,05,04,17,53,8.70
2010,05,04,17,54,8.70
2010,05,04,17,55,8.70
2010,05,04,17,56,8.80
2010,05,04,17,57,8.90
2010,05,04,17,58,8.90
2010,05,04,17,59,8.90
2010,05,04,18,00,8.80
2010,05,04,18,01,8.80
2010,05,04,18,02,8.70
2010,05,04,18,03,8.80
2010,05,04,18,04,8.90
2010,05,04,18,05,9.00
2010,05,04,18,06,9.00